Regional Weather Roundup
Issued by NWS Charleston, SC

Current Version | Previous Version | Text Only | Print | Product List | Glossary Off
Versions: 1 2 3 4 5 6 7 8 9 10 11 12 13 14 15 16 17 18 19 20 21 22 23 24 25 26 27 28 29 30 31 32 33 34 35 36 37 38 39 40 41 42 43 44 45 46 47 48 49 50
000 ASUS42 KCHS 261113 RWRCHS REGIONAL WEATHER ROUNDUP NATIONAL WEATHER SERVICE CHARLESTON SC 700 AM EDT THU MAY 26 2016 NOTE: "FAIR" INDICATES FEW OR NO CLOUDS BELOW 12,000 FEET WITH NO SIGNIFICANT WEATHER AND/OR OBSTRUCTIONS TO VISIBILITY. NOT ALL STATIONS ARE QUALITY CONTROLLED. USE DATA WITH CAUTION... ESPECIALLY DEWPOINT OBSERVATIONS. SCZ027-030-031-034>040-042>050-261200- ...SOUTHEAST SOUTH CAROLINA... CITY SKY/WX TMP DP RH WIND PRES REMARKS N CHARLESTON PTCLDY 72 68 87 S5 30.20R WATERFRONT PRK N/A 73 69 87 VRB3 30.17S MOUNT PLEASANT FAIR 66 64 94 CALM 30.21R JOHNS ISLAND FAIR 68 66 94 CALM 30.20R PINOPOLIS N/A 72 68 88 VRB2 30.10S MONCKS CORNER FAIR 61 59 94 CALM 30.20R SUMMERVILLE FAIR 64 64 100 CALM 30.21R BEAUFORT MCAS PTCLDY 69 66 90 NW3 30.20R BEAUFORT ARPT FAIR 70 68 94 CALM 30.20R HILTON HEAD IS CLEAR 73 68 83 S3 30.20R WALTERBORO PTSUNNY 64 64 100 CALM 30.21R ALLENDALE FAIR 64 64 100 CALM 30.19R ...SOUTHERN MIDLANDS AND PEE DEE... CITY SKY/WX TMP DP RH WIND PRES REMARKS GEORGETOWN FAIR 63 61 94 CALM 30.21R KINGSTREE FAIR 63 61 94 CALM 30.20R ORANGEBURG PTCLDY 64 62 93 CALM 30.20R FOG BARNWELL FAIR 64 64 100 CALM 30.20S AIKEN FAIR 64 59 82 S6 30.23R MANNING FAIR 66 64 94 CALM 30.20R COLUMBIA PTCLDY 66 59 78 CALM 30.19R SUMTER PTCLDY 68 64 88 SW5 30.18R FLORENCE NOT AVBL MYRTLE BEACH CLEAR 70 63 78 S7 30.22S N MYRTLE BEACH PTCLDY 70 67 90 CALM 30.21R $$ GAZ063-065-086>088-099>101-113>116-118-119-134>141-150-261200- ...SOUTHEAST GEORGIA... CITY SKY/WX TMP DP RH WIND PRES REMARKS SAVANNAH ARPT PTCLDY 66 64 93 CALM 30.20R HUNTER AAF CLEAR 67 67 100 CALM 30.17R FORT STEWART CLEAR 64 62 94 CALM 30.17R STATESBORO CLEAR 66 66 98 CALM 30.20R SYLVANIA SUNNY 67 65 93 CALM 30.20R CLAXTON FAIR 62 62 100 CALM 30.19R FOG ...CSRA...CENTRAL AND FAR SOUTHEAST GEORGIA... CITY SKY/WX TMP DP RH WIND PRES REMARKS THOMSON CLEAR 68 63 84 S3 30.23R AUGUSTA-BUSH PTCLDY 62 61 96 CALM 30.19R AUGUSTA-DANIEL PTCLDY 68 61 78 S5 30.20R SWAINSBORO FAIR 64 63 94 CALM 30.20R VIDALIA CLOUDY 66 63 88 CALM 30.20R EASTMAN FAIR 64 64 100 CALM 30.21R HAZLEHURST FAIR 68 64 85 CALM 30.19R ALMA CLEAR 61 61 100 CALM 30.19R FOG WAYCROSS CLEAR 62 61 98 CALM 30.19R JESUP FAIR 59 57 94 CALM 30.19R BAXLEY FAIR 64 63 94 CALM 30.19R BRUNSWICK FOG 63 61 94 CALM 30.19R VSB 1 SAINT SIMONS CLEAR 74 64 71 SE6 30.18R $$ SCZ027-028-034-036>038-045-046-048>050-GAZ119-141-261200- ...LAKE AND SUPPLEMENTAL COASTAL OBSERVATIONS... STATION/POSITION TIME TEMP WIND PRES WAVE SWELL AIR SEA DIR/SP/G HT/PER HT/PER/DIR (UTC) (F) (DEG/KT/KT) (MB) (FT/S) (FT/S/D) WINYAH BAY 0945 69 270/ 2 1022.0 LAKE MURRAY 1000 71 210/ 9/ 11 1021.3R ACE BASIN NERRS NOT AVBL FORT PULASKI 1000 72 76 150/ 2/ 3 1022.3R SAPELO ISLAND 1000 70 140/ 4 1022.0R $$ ANZ835-935-AMZ111-154-330-350-352-354-370-450-454-472-261200- ...C-MAN AND BUOY OBSERVATIONS... STATION/POSITION TIME TEMP WIND PRES WAVE SWELL AIR SEA DIR/SP/G HT/PER HT/PER/DIR (UTC) (F) (DEG/KT/KT) (MB) (FT/S) (FT/S/D) BUOY 41004 1050 77 76 170/ 6/ 8 1022.6R 2/ 8 2/ 8 BUOY 41008 1050 77 76 140/ 8/ 10 1022.3R 2/ 8 2/ 90/ 8 FOLLY BEACH CMAN 1100 75 190/ 9/ 9 1022.8R CAPERS NEARSHORE 1008 76 75 210/ 8/ 12 1022.4R FRIPP NEARSHORE 1008 76 76 180/ 8/ 12 1021.6R STATION/POSITION TIME TEMP WIND PRES WAVE SWELL AIR SEA DIR/SP/G HT/PER HT/PER/DIR (UTC) (F) (DEG/KT/KT) (MB) (FT/S) (FT/S/D) 5E ST. MARYS GA 1021 78 N/A 2/ 8 FRYING PAN BUOY 1000 76 76 200/ 8/ 8 1022.5R BUOY 41025 1050 71 69 250/ 4/ 4 1023.5R 2/ 9 2/120/ 9 CAPE LOOKOUT NC 1100 73 210/ 5/ 6 1023.2R BUOY 41002 1050 75 78 80/ 10/ 14 1022.8R 2/ 8 2/ 90/ 8 BUOY 41010 1020 76 77 70/ 8/ 12 1020.6R ST AUGUSTINE FL 1100 76 78 110/ 11/ 13 1022.3S $$

USA.gov is the U.S. government's official web portal to all federal, state and local government web resources and services.